SCP
-0 -0 -0 -0 -0 -0 -0 -0 -0 -0 -0 -0 -0 -0 -0 -0 0 -0 -0 -0 -0 -0 -0 -0 -0 -0 -0 -0 -0 -0 -0 -0 -0 -0 0 0 0 -0 0 0 0 -0 0 0 0 0 0
0 -0 0 -0 -0 -0 -0 -0 -0 -0 -0 -0 -0 -0 -0 0 -0 -0 -0 -0 -0 -0 -0 -0 -0 -0 -0 0 -0 -0 -0 -0 -0 -0 -0 -0 0 0 0 0 -0 0 0 0 0 0 0
0 -0 -0 -0 -0 -0 -0 -0 -0 -0 -0 -0 -0 -0 -0 -0 -0 -0 -0 -0 -0 -0 -0 -0 -0 -0 -0 -0 -0 0 0 0 0 0 0 0 0 0 0 0 0 0 0 0 -0 0 0
-0 -0 -0 -0 -0 -0 -0 -0 -0 -0 -0 -0 -0 -0 0 -0 -0 -0 -0 -0 -0 -0 -0 -0 -0 -0 -0 0 0 0 0 0 0 0 0 0 0 0 0 0 0 0 0 0 0 0 0
0 -0 -0 -0 -0 -0 -0 -0 0 0 -0 -0 -0 -0 0 -0 -0 -0 -0 -0 -0 0 -0 -0 0 0 0 0 0 0 0 0 0 0 0 0 0 0 0 0 0 0 0 0 0 0 0
0 -0 -0 -0 -0 0 -0 -0 -0 0 -0 -0 -0 0 0 -0 -0 -0 -0 0 0 0 0 0 0 0 0 0 0 0 0 0 0 0 0 0 0 0 0 0 0 0 0 0 0 0 0
0 0 0 0 0 0 0 -0 -0 -0 -0 -0 0 0 0 -0 -0 -0 0 0 0 0 0 0 0 0 0 0 0 0 0 0 0 0 0 0 0 0 0 0 0 0 0 0 0 0 0
0 0 0 0 0 0 0 -0 -0 -0 -0 -0 0 0 0 -0 -0 0 0 -0 0 0 0 0 0 0 0 0 0 0 0 0 0 0 0 0 0 0 0 0 0 0 0 0 0 0 0
0 0 0 0 0 0 0 0 -0 -0 -0 -0 0 0 0 -0 -0 0 -0 0 0 0 0 0 0 0 0 0 0 0 0 0 0 0 0 0 0 0 0 0 0 0 0 0 0 0 0
0 0 0 0 0 0 0 0 -0 -0 -0 -0 0 0 -0 -0 0 0 0 0 0 0 0 0 0 0 0 0 0 0 0 0 0 0 0 0 0 0 0 0 0 0 0 0 0 0 0
0 0 0 0 0 0 0 0 -0 -0 -0 -0 0 0 0 0 0 0 0 0 0 0 0 0 0 0 0 0 0 0 0 0 0 0 0 0 0 0 0 0 0 0 0 0 0 0 0
0 0 0 0 0 0 0 -0 -0 -0 -0 -0 -0 0 -0 0 0 0 0 0 0 0 0 0 0 0 0 0 0 0 0 0 0 0 0 0 0 0 0 0 0 0 0 0 0 0 0
0 0 0 0 0 0 0 -0 -0 -0 -0 -0 -0 0 0 0 0 0 0 0 0 0 0 0 0 0 0 0 0 0 0 0 0 0 0 0 0 0 0 0 0 0 0 0 0 0 0
0 0 0 0 0 0 0 -0 -0 -0 0 -0 0 0 0 0 0 0 0 0 0 0 0 0 0 0 0 0 0 0 0 0 0 0 0 0 0 0 0 0 0 0 0 0 0 0 0
-0 0 0 0 0 0 0 -0 -0 -0 -0 0 0 0 0 0 0 0 0 0 0 0 0 0 0 0 0 0 0 0 0 0 0 0 0 0 0 0 0 0 0 0 0 0 0 0 0
-0 -0 -0 -0 -0 0 0 0 -0 -0 -0 0 0 0 0 0 0 0 0 0 0 0 0 0 0 0 0 0 0 0 0 0 0 0 0 0 0 0 0 0 0 0 0 0 0 0 0
-0 -0 -0 -0 -0 -0 0 -0 -0 0 -0 0 0 0 0 0 0 0 0 0 0 0 0 0 0 0 0 0 0 0 0 0 0 0 0 0 0 0 0 0 0 0 0 0 0 0 -0
0 -0 -0 -0 -0 -0 0 0 -0 0 0 0 0 0 0 0 0 0 0 0 0 0 0 0 0 0 0 0 0 0 0 0 0 0 0 0 0 0 0 0 0 0 0 0 0 0 0
0 0 0 -0 0 0 0 0 0 0 0 0 0 0 0 0 0 0 0 0 0 0 0 0 0 0 0 0 0 0 0 0 0 0 0 0 0 0 0 0 0 0 0 0 0 0 0
0 0 0 0 0 0 0 0 0 0 0 0 0 0 0 0 0 0 0 0 0 0 0 0 0 0 0 0 0 0 0 0 0 0 0 0 0 0 0 0 0 0 -0 0 0 0 0
0 0 0 0 0 0 0 0 0 0 0 0 0 0 0 0 0 0 0 0 0 0 0 0 0 0 0 0 0 0 0 0 0 0 0 0 0 0 0 0 0 -0 0 -0 0 0 0
0 0 0 0 0 0 0 0 0 0 0 0 0 0 0 0 0 0 0 0 0 0 0 0 0 0 0 0 0 0 0 0 0 0 0 0 0 0 0 0 0 -0 -0 0 0 0 0
0 0 0 0 0 0 0 0 0 0 0 0 0 0 0 0 0 0 0 0 0 0 0 0 0 0 0 0 0 0 0 0 0 0 0 0 0 -0 0 -0 -0 0 0 0 0 0 0
0 0 0 0 0 0 0 0 0 0 0 0 0 0 0 0 0 0 0 0 0 0 0 0 0 0 0 0 0 0 0 0 0 0 0 0 0 0 0 -0 0 0 0 0 0 0 0
0 0 0 0 0 0 0 0 0 0 0 0 0 0 0 0 0 0 0 0 0 0 0 0 0 0 0 0 0 0 0 0 0 0 0 0 0 -0 0 0 0 0 0 0 0 -0 0
0 0 0 0 0 0 0 0 0 0 0 0 0 0 0 0 0 0 0 0 0 0 0 0 0 0 0 0 0 0 0 0 0 0 0 0 0 0 0 0 0 0 0 0 0 0 0
0 0 0 0 0 0 0 0 0 0 0 0 0 0 0 0 0 0 0 0 0 0 0 0 0 0 0 0 0 0 0 0 0 0 0 0 0 0 0 0 0 0 0 0 0 0 0
0 0 0 0 0 0 0 0 0 0 0 0 0 0 0 0 0 0 0 0 0 0 0 0 0 0 0 0 0 0 0 0 0 0 0 0 0 0 0 0 0 0 0 0 0 0 0
0 0 0 0 0 0 0 0 0 0 0 0 0 0 0 0 0 0 0 -0 0 0 0 0 0 0 0 0 0 0 0 0 0 0 0 0 0 0 0 0 0 0 0 0 0 0 0
Wind_Speed_500mb
56 57 59 60 61 61 62 65 67 68 66 64 63 47 31 29 26 24 24 24 27 30 23 21 19 19 19 21 14 12 9 10 12 16 18 20 18 6 9 5 6 7 7 18 33 40 38
57 58 59 59 60 63 65 66 66 66 66 64 62 51 30 24 23 23 24 28 31 23 14 15 18 19 21 23 12 9 4 3 6 11 15 15 10 13 3 8 6 7 25 37 30 26 19
57 58 59 60 61 64 66 67 68 65 64 64 63 54 34 21 18 22 24 29 30 12 16 15 21 26 24 13 9 12 12 10 13 16 20 21 18 8 9 12 5 18 20 25 11 10 22
57 59 61 61 62 65 68 72 74 70 64 63 61 56 35 21 13 21 27 29 17 12 14 16 17 16 12 16 16 18 22 24 21 21 22 22 22 13 8 9 9 15 9 23 20 28 15
59 60 62 62 63 66 70 75 79 76 65 65 62 54 31 19 11 19 29 23 10 17 14 11 9 10 7 22 23 27 26 21 26 28 25 25 20 9 6 15 22 11 29 40 42 13 28
60 61 64 65 65 67 70 75 81 80 66 63 61 46 26 17 13 21 31 14 9 17 8 10 13 5 12 21 18 30 33 24 16 21 11 5 1 11 11 15 32 47 47 44 48 43 42
58 62 66 66 65 65 71 76 79 80 65 61 57 35 27 16 17 23 29 12 6 5 16 6 5 5 14 27 12 27 33 30 23 5 7 8 13 28 37 25 29 32 41 50 52 44 49
58 63 67 68 66 66 70 76 78 78 64 57 46 31 26 15 20 24 30 19 18 8 8 11 10 14 23 23 5 18 34 23 10 11 17 17 27 22 13 28 32 32 40 52 48 37 34
59 63 68 70 69 69 70 76 77 73 63 55 35 28 28 15 22 22 28 27 19 10 3 5 2 12 20 20 2 8 20 21 18 17 24 19 25 23 25 38 38 29 32 36 38 37 34
61 66 70 72 70 70 72 75 75 68 60 50 24 24 29 19 10 25 23 29 14 3 2 7 1 1 17 22 4 6 14 14 17 20 13 13 9 20 34 37 23 26 12 19 33 31 25
65 69 72 72 71 71 72 74 73 65 57 44 21 14 22 24 14 23 29 23 5 4 4 10 2 2 27 12 18 7 22 15 22 31 9 12 22 38 39 21 19 25 21 33 34 35 34
70 72 73 72 72 72 72 71 71 66 56 41 22 9 17 25 22 23 26 8 8 3 5 4 4 16 23 21 6 12 16 19 19 8 11 28 34 20 18 25 24 19 28 42 29 15 16
72 72 72 71 72 73 72 71 69 64 55 38 13 11 15 25 28 23 23 0 4 5 6 4 10 18 20 9 8 11 26 24 11 10 23 36 6 13 13 24 29 17 26 12 6 5 12
69 70 70 71 72 72 72 71 68 63 56 40 11 4 10 21 25 25 23 3 4 6 6 11 12 30 9 15 14 19 15 22 4 7 13 17 30 13 5 41 31 42 16 9 13 11 25
67 70 70 71 71 71 72 73 69 62 58 46 15 9 9 20 24 23 11 4 3 2 6 15 23 7 4 8 13 14 20 14 6 11 11 20 24 47 40 26 6 4 11 4 12 24 15
70 70 70 70 69 68 69 70 71 64 59 54 20 4 9 20 25 15 7 2 4 4 13 7 10 5 12 22 11 21 11 7 5 9 8 11 37 17 14 36 17 24 2 9 7 9 11
67 67 68 68 67 67 65 66 67 69 61 54 19 4 17 23 13 13 5 5 9 12 11 6 10 16 13 11 14 15 12 19 8 16 4 20 8 24 34 15 32 13 6 11 7 10 11
65 66 66 65 66 65 63 61 62 64 67 60 16 4 26 24 11 8 4 13 14 10 13 10 8 11 5 20 9 11 13 8 26 12 22 6 8 24 42 45 24 29 31 21 11 15 15
60 61 62 63 63 63 61 57 56 55 56 56 19 12 21 15 7 6 8 8 9 11 16 10 10 8 12 6 13 10 28 10 47 23 11 14 6 17 19 6 4 18 21 28 28 27 46
59 59 60 59 59 58 58 56 51 48 44 37 16 8 13 21 17 5 7 6 12 14 14 9 21 12 14 11 16 22 46 19 18 37 59 35 11 25 24 44 42 42 53 48 34 18 36
55 56 57 57 56 54 54 55 51 44 36 23 15 6 6 9 5 10 4 4 10 10 13 30 7 12 21 17 43 35 17 45 43 42 7 8 18 31 37 43 49 56 58 58 42 46 36
52 53 53 53 52 51 50 51 52 48 34 18 9 12 13 15 10 8 3 4 9 8 16 25 32 25 36 35 34 50 41 39 23 16 12 12 15 30 42 45 46 56 48 37 36 37 38
49 49 50 49 48 47 45 44 46 48 41 16 15 11 5 7 6 8 4 1 14 34 18 11 35 44 34 35 41 65 78 76 52 44 33 13 8 17 38 37 51 29 12 9 19 27 30
47 47 47 46 45 45 44 40 39 38 35 23 16 14 5 7 8 10 17 34 26 21 32 49 41 36 25 54 67 65 43 30 23 23 33 11 13 8 24 35 18 15 7 10 23 33 42
43 44 44 43 43 42 41 39 34 31 29 18 9 10 7 10 12 35 13 9 35 34 34 38 37 34 51 51 11 15 7 4 4 6 12 23 9 15 10 21 44 25 6 4 19 60 32
40 41 41 40 39 39 39 37 35 30 28 28 15 8 11 17 8 13 25 29 19 22 23 13 41 37 31 7 6 7 7 8 9 12 7 12 21 11 20 19 15 7 5 23 15 27 9
39 40 40 40 40 38 37 37 35 32 28 30 21 10 13 18 23 16 13 19 17 20 18 29 15 25 8 4 5 6 8 5 8 9 9 16 13 18 21 20 19 3 23 30 11 25 51
37 39 39 38 38 36 35 36 35 34 31 32 32 16 21 18 52 50 35 34 33 28 13 24 21 3 6 5 4 4 6 5 8 14 16 10 10 8 11 19 16 33 44 6 26 67 72
36 37 38 38 36 36 35 34 34 36 36 34 33 15 18 33 44 60 80 70 62 56 56 20 13 5 8 6 5 4 7 6 10 11 6 9 9 11 10 16 54 65 34 53 62 67 83
Wind_Direction_500mb
36 33 31 30 28 27 26 24 22 19 16 15 14 12 11 14 18 22 21 15 5 4 18 29 63 93 97 87 100 93 96 68 51 38 26 21 37 58 6 333 306 208 288 284 286 282 285
34 32 29 29 28 26 24 21 17 14 12 11 10 9 7 10 17 18 17 7 357 5 20 46 71 97 102 93 99 96 103 34 4 358 354 4 354 341 263 299 282 274 293 292 289 284 268
31 28 27 26 25 23 20 16 12 8 6 6 5 4 4 7 13 6 359 354 354 47 47 92 96 97 89 80 55 15 345 317 314 312 318 326 324 318 313 282 246 294 299 311 225 292 313
27 25 24 22 20 18 15 12 9 7 3 2 2 1 2 8 11 4 360 358 31 65 70 108 108 101 89 53 29 1 345 328 319 306 305 314 316 299 238 282 271 301 274 307 302 302 273
24 22 20 18 15 13 12 11 8 6 3 1 359 1 8 19 28 12 360 6 76 58 80 112 94 84 56 16 2 20 3 314 303 304 303 298 299 280 258 276 285 271 289 298 302 283 296
20 19 17 15 12 9 9 9 8 5 4 1 360 6 24 35 35 13 3 20 108 56 98 74 56 100 34 359 30 28 15 15 357 328 322 330 10 276 255 265 289 300 294 290 285 294 285
17 14 12 11 9 6 3 5 5 5 4 1 0 14 21 42 38 20 17 30 27 34 41 32 11 55 358 356 50 19 11 353 347 352 341 344 276 275 303 325 300 295 290 285 284 285 287
13 10 7 5 4 2 359 360 1 1 4 2 4 15 18 50 40 25 33 64 38 350 322 28 65 67 18 348 337 353 8 7 340 316 318 301 283 316 292 316 303 293 291 284 284 288 280
8 5 2 360 360 359 358 357 357 359 4 4 12 28 30 63 39 34 33 32 9 356 332 344 98 35 13 348 318 303 4 354 335 315 322 284 282 312 311 314 304 303 289 294 296 307 281
4 0 358 356 356 356 355 354 356 358 4 6 20 43 36 30 33 21 9 351 341 351 56 357 258 339 353 359 225 338 337 343 336 318 320 287 286 293 307 303 292 294 302 298 302 306 298
359 356 354 354 353 353 353 353 356 358 2 7 10 41 26 21 15 7 350 352 107 144 272 351 314 354 349 359 299 270 328 311 310 307 219 293 300 306 307 293 309 289 302 307 299 283 291
355 353 352 353 352 353 354 356 357 359 359 7 11 31 10 8 1 350 352 20 118 206 247 12 300 335 332 327 276 284 319 308 308 266 240 274 291 290 277 308 294 293 306 304 289 277 257
354 353 353 353 354 354 356 357 357 359 359 6 16 51 12 7 8 0 353 287 302 222 2 333 332 322 324 294 304 308 323 319 316 313 315 322 295 279 283 306 310 278 322 302 256 218 264
357 356 356 355 355 355 355 356 357 358 358 5 346 212 358 16 7 355 347 50 253 37 316 337 316 310 287 3 330 325 306 319 257 231 305 330 323 346 248 308 293 288 266 272 297 290 301
357 356 355 355 355 355 354 355 356 360 359 360 357 230 321 348 358 350 347 52 339 296 339 316 308 264 259 339 319 330 317 293 255 186 338 321 295 310 295 295 277 313 220 295 271 257 268
354 355 355 354 355 356 355 354 353 360 1 355 5 227 10 350 344 346 62 323 295 315 349 302 284 249 290 329 315 339 309 246 255 201 229 305 303 314 321 305 292 241 124 258 209 274 259
351 352 353 353 354 356 358 356 355 356 3 -0 9 99 5 354 6 55 63 304 290 308 322 275 279 287 292 336 311 306 268 288 247 337 236 309 231 291 309 283 302 272 230 232 275 239 277
349 350 351 352 353 354 357 357 357 357 358 7 18 51 355 358 50 44 39 322 313 314 338 299 286 284 320 324 296 283 256 271 307 335 319 324 277 287 289 287 300 258 263 259 255 263 248
347 348 349 350 351 352 355 359 358 0 1 360 1 338 4 25 68 20 332 305 285 315 338 332 320 358 320 299 321 256 292 309 305 297 324 325 255 296 294 239 162 259 281 289 271 266 265
343 345 347 348 350 351 352 356 1 2 4 4 2 357 12 57 94 70 352 305 316 307 306 349 311 306 333 287 292 286 297 302 327 308 302 295 221 251 273 282 295 290 285 288 272 261 279
341 343 344 345 348 349 351 352 358 5 7 14 22 44 13 326 1 339 190 263 293 337 345 319 283 290 340 305 308 279 303 300 296 302 303 276 260 269 271 282 288 280 281 287 277 268 264
338 340 342 344 345 349 352 351 354 3 18 31 32 4 343 299 300 298 255 204 293 332 321 300 282 321 322 299 279 294 300 290 293 295 288 270 276 295 288 289 288 291 287 282 275 278 273
336 338 340 342 345 347 352 353 355 356 13 49 28 357 329 283 306 300 254 122 306 316 291 305 314 311 294 289 298 291 284 281 271 274 283 265 264 300 294 314 310 288 255 223 268 264 266
333 336 337 340 343 345 346 350 352 353 2 23 22 351 341 271 258 277 284 299 296 297 295 298 301 292 281 306 303 290 280 271 263 251 223 254 271 275 294 312 294 326 143 263 266 274 278
330 332 333 337 340 340 342 345 349 347 341 351 1 345 304 283 262 296 282 247 303 293 284 293 296 306 308 312 292 304 312 260 268 195 215 223 276 301 281 303 284 286 72 292 304 302 291
326 327 329 333 335 336 338 339 339 341 335 330 345 300 297 301 239 234 300 290 292 306 298 264 310 305 318 269 282 298 310 318 307 305 126 172 240 264 297 286 298 17 307 294 280 282 175
320 323 327 330 331 332 333 333 333 333 333 321 317 266 268 274 276 253 247 301 290 289 285 299 349 320 269 275 279 283 277 288 281 295 302 307 309 269 288 290 271 169 313 327 279 318 315
316 319 322 325 326 329 331 330 328 328 328 321 311 277 256 261 280 268 265 261 273 264 270 290 329 170 273 258 254 315 261 278 283 270 285 291 315 295 295 294 300 324 330 315 300 299 300
312 316 320 322 324 325 326 326 327 328 327 318 303 308 270 269 268 284 287 278 260 257 262 255 231 291 286 295 244 298 264 250 261 285 218 275 248 290 277 277 292 313 318 309 306 298 301
Wind_Speed_850mb
56 57 59 60 61 61 62 65 67 68 66 64 63 47 31 29 26 24 24 24 27 30 23 21 19 19 19 21 14 12 9 10 12 16 18 20 18 6 9 5 6 7 7 18 33 40 38
57 58 59 59 60 63 65 66 66 66 66 64 62 51 30 24 23 23 24 28 31 23 14 15 18 19 21 23 12 9 4 3 6 11 15 15 10 13 3 8 6 7 25 37 30 26 19
57 58 59 60 61 64 66 67 68 65 64 64 63 54 34 21 18 22 24 29 30 12 16 15 21 26 24 13 9 12 12 10 13 16 20 21 18 8 9 12 5 18 20 25 11 10 22
57 59 61 61 62 65 68 72 74 70 64 63 61 56 35 21 13 21 27 29 17 12 14 16 17 16 12 16 16 18 22 24 21 21 22 22 22 13 8 9 9 15 9 23 20 28 15
59 60 62 62 63 66 70 75 79 76 65 65 62 54 31 19 11 19 29 23 10 17 14 11 9 10 7 22 23 27 26 21 26 28 25 25 20 9 6 15 22 11 29 40 42 13 28
60 61 64 65 65 67 70 75 81 80 66 63 61 46 26 17 13 21 31 14 9 17 8 10 13 5 12 21 18 30 33 24 16 21 11 5 1 11 11 15 32 47 47 44 48 43 42
58 62 66 66 65 65 71 76 79 80 65 61 57 35 27 16 17 23 29 12 6 5 16 6 5 5 14 27 12 27 33 30 23 5 7 8 13 28 37 25 29 32 41 50 52 44 49
58 63 67 68 66 66 70 76 78 78 64 57 46 31 26 15 20 24 30 19 18 8 8 11 10 14 23 23 5 18 34 23 10 11 17 17 27 22 13 28 32 32 40 52 48 37 34
59 63 68 70 69 69 70 76 77 73 63 55 35 28 28 15 22 22 28 27 19 10 3 5 2 12 20 20 2 8 20 21 18 17 24 19 25 23 25 38 38 29 32 36 38 37 34
61 66 70 72 70 70 72 75 75 68 60 50 24 24 29 19 10 25 23 29 14 3 2 7 1 1 17 22 4 6 14 14 17 20 13 13 9 20 34 37 23 26 12 19 33 31 25
65 69 72 72 71 71 72 74 73 65 57 44 21 14 22 24 14 23 29 23 5 4 4 10 2 2 27 12 18 7 22 15 22 31 9 12 22 38 39 21 19 25 21 33 34 35 34
70 72 73 72 72 72 72 71 71 66 56 41 22 9 17 25 22 23 26 8 8 3 5 4 4 16 23 21 6 12 16 19 19 8 11 28 34 20 18 25 24 19 28 42 29 15 16
72 72 72 71 72 73 72 71 69 64 55 38 13 11 15 25 28 23 23 0 4 5 6 4 10 18 20 9 8 11 26 24 11 10 23 36 6 13 13 24 29 17 26 12 6 5 12
69 70 70 71 72 72 72 71 68 63 56 40 11 4 10 21 25 25 23 3 4 6 6 11 12 30 9 15 14 19 15 22 4 7 13 17 30 13 5 41 31 42 16 9 13 11 25
67 70 70 71 71 71 72 73 69 62 58 46 15 9 9 20 24 23 11 4 3 2 6 15 23 7 4 8 13 14 20 14 6 11 11 20 24 47 40 26 6 4 11 4 12 24 15
70 70 70 70 69 68 69 70 71 64 59 54 20 4 9 20 25 15 7 2 4 4 13 7 10 5 12 22 11 21 11 7 5 9 8 11 37 17 14 36 17 24 2 9 7 9 11
67 67 68 68 67 67 65 66 67 69 61 54 19 4 17 23 13 13 5 5 9 12 11 6 10 16 13 11 14 15 12 19 8 16 4 20 8 24 34 15 32 13 6 11 7 10 11
65 66 66 65 66 65 63 61 62 64 67 60 16 4 26 24 11 8 4 13 14 10 13 10 8 11 5 20 9 11 13 8 26 12 22 6 8 24 42 45 24 29 31 21 11 15 15
60 61 62 63 63 63 61 57 56 55 56 56 19 12 21 15 7 6 8 8 9 11 16 10 10 8 12 6 13 10 28 10 47 23 11 14 6 17 19 6 4 18 21 28 28 27 46
59 59 60 59 59 58 58 56 51 48 44 37 16 8 13 21 17 5 7 6 12 14 14 9 21 12 14 11 16 22 46 19 18 37 59 35 11 25 24 44 42 42 53 48 34 18 36
55 56 57 57 56 54 54 55 51 44 36 23 15 6 6 9 5 10 4 4 10 10 13 30 7 12 21 17 43 35 17 45 43 42 7 8 18 31 37 43 49 56 58 58 42 46 36
52 53 53 53 52 51 50 51 52 48 34 18 9 12 13 15 10 8 3 4 9 8 16 25 32 25 36 35 34 50 41 39 23 16 12 12 15 30 42 45 46 56 48 37 36 37 38
49 49 50 49 48 47 45 44 46 48 41 16 15 11 5 7 6 8 4 1 14 34 18 11 35 44 34 35 41 65 78 76 52 44 33 13 8 17 38 37 51 29 12 9 19 27 30
47 47 47 46 45 45 44 40 39 38 35 23 16 14 5 7 8 10 17 34 26 21 32 49 41 36 25 54 67 65 43 30 23 23 33 11 13 8 24 35 18 15 7 10 23 33 42
43 44 44 43 43 42 41 39 34 31 29 18 9 10 7 10 12 35 13 9 35 34 34 38 37 34 51 51 11 15 7 4 4 6 12 23 9 15 10 21 44 25 6 4 19 60 32
40 41 41 40 39 39 39 37 35 30 28 28 15 8 11 17 8 13 25 29 19 22 23 13 41 37 31 7 6 7 7 8 9 12 7 12 21 11 20 19 15 7 5 23 15 27 9
39 40 40 40 40 38 37 37 35 32 28 30 21 10 13 18 23 16 13 19 17 20 18 29 15 25 8 4 5 6 8 5 8 9 9 16 13 18 21 20 19 3 23 30 11 25 51
37 39 39 38 38 36 35 36 35 34 31 32 32 16 21 18 52 50 35 34 33 28 13 24 21 3 6 5 4 4 6 5 8 14 16 10 10 8 11 19 16 33 44 6 26 67 72
36 37 38 38 36 36 35 34 34 36 36 34 33 15 18 33 44 60 80 70 62 56 56 20 13 5 8 6 5 4 7 6 10 11 6 9 9 11 10 16 54 65 34 53 62 67 83
Wind_Direction_850mb
36 33 31 30 28 27 26 24 22 19 16 15 14 12 11 14 18 22 21 15 5 4 18 29 63 93 97 87 100 93 96 68 51 38 26 21 37 58 6 333 306 208 288 284 286 282 285
34 32 29 29 28 26 24 21 17 14 12 11 10 9 7 10 17 18 17 7 357 5 20 46 71 97 102 93 99 96 103 34 4 358 354 4 354 341 263 299 282 274 293 292 289 284 268
31 28 27 26 25 23 20 16 12 8 6 6 5 4 4 7 13 6 359 354 354 47 47 92 96 97 89 80 55 15 345 317 314 312 318 326 324 318 313 282 246 294 299 311 225 292 313
27 25 24 22 20 18 15 12 9 7 3 2 2 1 2 8 11 4 360 358 31 65 70 108 108 101 89 53 29 1 345 328 319 306 305 314 316 299 238 282 271 301 274 307 302 302 273
24 22 20 18 15 13 12 11 8 6 3 1 359 1 8 19 28 12 360 6 76 58 80 112 94 84 56 16 2 20 3 314 303 304 303 298 299 280 258 276 285 271 289 298 302 283 296
20 19 17 15 12 9 9 9 8 5 4 1 360 6 24 35 35 13 3 20 108 56 98 74 56 100 34 359 30 28 15 15 357 328 322 330 10 276 255 265 289 300 294 290 285 294 285
17 14 12 11 9 6 3 5 5 5 4 1 0 14 21 42 38 20 17 30 27 34 41 32 11 55 358 356 50 19 11 353 347 352 341 344 276 275 303 325 300 295 290 285 284 285 287
13 10 7 5 4 2 359 360 1 1 4 2 4 15 18 50 40 25 33 64 38 350 322 28 65 67 18 348 337 353 8 7 340 316 318 301 283 316 292 316 303 293 291 284 284 288 280
8 5 2 360 360 359 358 357 357 359 4 4 12 28 30 63 39 34 33 32 9 356 332 344 98 35 13 348 318 303 4 354 335 315 322 284 282 312 311 314 304 303 289 294 296 307 281
4 0 358 356 356 356 355 354 356 358 4 6 20 43 36 30 33 21 9 351 341 351 56 357 258 339 353 359 225 338 337 343 336 318 320 287 286 293 307 303 292 294 302 298 302 306 298
359 356 354 354 353 353 353 353 356 358 2 7 10 41 26 21 15 7 350 352 107 144 272 351 314 354 349 359 299 270 328 311 310 307 219 293 300 306 307 293 309 289 302 307 299 283 291
355 353 352 353 352 353 354 356 357 359 359 7 11 31 10 8 1 350 352 20 118 206 247 12 300 335 332 327 276 284 319 308 308 266 240 274 291 290 277 308 294 293 306 304 289 277 257
354 353 353 353 354 354 356 357 357 359 359 6 16 51 12 7 8 0 353 287 302 222 2 333 332 322 324 294 304 308 323 319 316 313 315 322 295 279 283 306 310 278 322 302 256 218 264
357 356 356 355 355 355 355 356 357 358 358 5 346 212 358 16 7 355 347 50 253 37 316 337 316 310 287 3 330 325 306 319 257 231 305 330 323 346 248 308 293 288 266 272 297 290 301
357 356 355 355 355 355 354 355 356 360 359 360 357 230 321 348 358 350 347 52 339 296 339 316 308 264 259 339 319 330 317 293 255 186 338 321 295 310 295 295 277 313 220 295 271 257 268
354 355 355 354 355 356 355 354 353 360 1 355 5 227 10 350 344 346 62 323 295 315 349 302 284 249 290 329 315 339 309 246 255 201 229 305 303 314 321 305 292 241 124 258 209 274 259
351 352 353 353 354 356 358 356 355 356 3 -0 9 99 5 354 6 55 63 304 290 308 322 275 279 287 292 336 311 306 268 288 247 337 236 309 231 291 309 283 302 272 230 232 275 239 277
349 350 351 352 353 354 357 357 357 357 358 7 18 51 355 358 50 44 39 322 313 314 338 299 286 284 320 324 296 283 256 271 307 335 319 324 277 287 289 287 300 258 263 259 255 263 248
347 348 349 350 351 352 355 359 358 0 1 360 1 338 4 25 68 20 332 305 285 315 338 332 320 358 320 299 321 256 292 309 305 297 324 325 255 296 294 239 162 259 281 289 271 266 265
343 345 347 348 350 351 352 356 1 2 4 4 2 357 12 57 94 70 352 305 316 307 306 349 311 306 333 287 292 286 297 302 327 308 302 295 221 251 273 282 295 290 285 288 272 261 279
341 343 344 345 348 349 351 352 358 5 7 14 22 44 13 326 1 339 190 263 293 337 345 319 283 290 340 305 308 279 303 300 296 302 303 276 260 269 271 282 288 280 281 287 277 268 264
338 340 342 344 345 349 352 351 354 3 18 31 32 4 343 299 300 298 255 204 293 332 321 300 282 321 322 299 279 294 300 290 293 295 288 270 276 295 288 289 288 291 287 282 275 278 273
336 338 340 342 345 347 352 353 355 356 13 49 28 357 329 283 306 300 254 122 306 316 291 305 314 311 294 289 298 291 284 281 271 274 283 265 264 300 294 314 310 288 255 223 268 264 266
333 336 337 340 343 345 346 350 352 353 2 23 22 351 341 271 258 277 284 299 296 297 295 298 301 292 281 306 303 290 280 271 263 251 223 254 271 275 294 312 294 326 143 263 266 274 278
330 332 333 337 340 340 342 345 349 347 341 351 1 345 304 283 262 296 282 247 303 293 284 293 296 306 308 312 292 304 312 260 268 195 215 223 276 301 281 303 284 286 72 292 304 302 291
326 327 329 333 335 336 338 339 339 341 335 330 345 300 297 301 239 234 300 290 292 306 298 264 310 305 318 269 282 298 310 318 307 305 126 172 240 264 297 286 298 17 307 294 280 282 175
320 323 327 330 331 332 333 333 333 333 333 321 317 266 268 274 276 253 247 301 290 289 285 299 349 320 269 275 279 283 277 288 281 295 302 307 309 269 288 290 271 169 313 327 279 318 315
316 319 322 325 326 329 331 330 328 328 328 321 311 277 256 261 280 268 265 261 273 264 270 290 329 170 273 258 254 315 261 278 283 270 285 291 315 295 295 294 300 324 330 315 300 299 300
312 316 320 322 324 325 326 326 327 328 327 318 303 308 270 269 268 284 287 278 260 257 262 255 231 291 286 295 244 298 264 250 261 285 218 275 248 290 277 277 292 313 318 309 306 298 301